Hourly Weather Aleksandria

Today, 7 August, Friday

Time Temperature Precipitation Wind Pressure Humidity
00:00 +28°C° 0 mm 3 mps 756 mmHg 71%
01:00 +28°C° 0 mm 3 mps 756 mmHg 72%
02:00 +27°C° 0 mm 3 mps 756 mmHg 73%
03:00 +27°C° 0 mm 3 mps 756 mmHg 75%
04:00 +27°C° 0 mm 3 mps 756 mmHg 76%
05:00 +27°C° 0 mm 2 mps 756 mmHg 78%
06:00 +28°C° 0 mm 3 mps 756 mmHg 71%
07:00 +30°C° 0 mm 3 mps 757 mmHg 64%
08:00 +31°C° 0 mm 3 mps 757 mmHg 58%
09:00 +34°C° 0 mm 3 mps 757 mmHg 52%
10:00 +35°C° 0 mm 4 mps 757 mmHg 47%
11:00 +36°C° 0 mm 4 mps 757 mmHg 42%
12:00 +36°C° 0 mm 4 mps 757 mmHg 43%
13:00 +36°C° 0 mm 5 mps 756 mmHg 43%
14:00 +36°C° 0 mm 6 mps 756 mmHg 44%
15:00 +36°C° 0 mm 6 mps 756 mmHg 49%
16:00 +35°C° 0 mm 7 mps 756 mmHg 55%
17:00 +34°C° 0 mm 7 mps 756 mmHg 60%
18:00 +32°C° 0 mm 6 mps 756 mmHg 65%
19:00 +30°C° 0 mm 6 mps 756 mmHg 71%
20:00 +29°C° 0 mm 5 mps 757 mmHg 76%
21:00 +29°C° 0 mm 5 mps 757 mmHg 76%
22:00 +29°C° 0 mm 5 mps 757 mmHg 76%
23:00 +29°C° 0 mm 5 mps 757 mmHg 76%

Tomorrow, 8 August, Saturday

Time Temperature Precipitation Wind Pressure Humidity
00:00 +28°C° 0 mm 5 mps 756 mmHg 76%
01:00 +28°C° 0 mm 5 mps 756 mmHg 76%
02:00 +28°C° 0 mm 5 mps 755 mmHg 76%
03:00 +28°C° 0 mm 4 mps 756 mmHg 77%
04:00 +27°C° 0 mm 3 mps 756 mmHg 78%
05:00 +27°C° 0 mm 3 mps 756 mmHg 78%
06:00 +28°C° 0 mm 3 mps 756 mmHg 72%
07:00 +30°C° 0 mm 4 mps 756 mmHg 66%
08:00 +32°C° 0 mm 4 mps 757 mmHg 59%
09:00 +33°C° 0 mm 4 mps 757 mmHg 56%
10:00 +34°C° 0 mm 4 mps 756 mmHg 53%
11:00 +35°C° 0 mm 4 mps 756 mmHg 49%
12:00 +35°C° 0 mm 5 mps 756 mmHg 50%
13:00 +35°C° 0 mm 5 mps 755 mmHg 51%
14:00 +35°C° 0 mm 6 mps 755 mmHg 52%
15:00 +34°C° 0 mm 6 mps 755 mmHg 54%
16:00 +33°C° 0 mm 7 mps 755 mmHg 57%
17:00 +33°C° 0 mm 7 mps 755 mmHg 60%
18:00 +32°C° 0 mm 6 mps 755 mmHg 64%
19:00 +30°C° 0 mm 6 mps 755 mmHg 68%
20:00 +29°C° 0 mm 6 mps 755 mmHg 71%
21:00 +29°C° 0 mm 5 mps 755 mmHg 72%
22:00 +28°C° 0 mm 5 mps 755 mmHg 72%
23:00 +28°C° 0 mm 5 mps 755 mmHg 72%

Day after tomorrow, 9 August, Sunday

Time Temperature Precipitation Wind Pressure Humidity
00:00 +28°C° 0 mm 4 mps 755 mmHg 73%
01:00 +27°C° 0 mm 3 mps 754 mmHg 73%
02:00 +27°C° 0 mm 3 mps 754 mmHg 74%
03:00 +27°C° 0 mm 3 mps 754 mmHg 74%
04:00 +27°C° 0 mm 3 mps 754 mmHg 75%
05:00 +27°C° 0 mm 2 mps 754 mmHg 75%
06:00 +28°C° 0 mm 3 mps 754 mmHg 71%
07:00 +29°C° 0 mm 3 mps 754 mmHg 66%
08:00 +30°C° 0 mm 4 mps 755 mmHg 62%
09:00 +32°C° 0 mm 4 mps 755 mmHg 59%
10:00 +33°C° 0 mm 5 mps 755 mmHg 56%
11:00 +34°C° 0 mm 5 mps 755 mmHg 54%
12:00 +34°C° 0 mm 6 mps 754 mmHg 54%
13:00 +34°C° 0 mm 6 mps 754 mmHg 54%
14:00 +34°C° 0 mm 6 mps 754 mmHg 54%
15:00 +33°C° 0 mm 6 mps 754 mmHg 56%
16:00 +33°C° 0 mm 6 mps 754 mmHg 58%
17:00 +32°C° 0 mm 6 mps 754 mmHg 59%
18:00 +30°C° 0 mm 6 mps 754 mmHg 64%
19:00 +29°C° 0 mm 5 mps 754 mmHg 69%
20:00 +28°C° 0 mm 5 mps 754 mmHg 74%
21:00 +28°C° 0 mm 5 mps 755 mmHg 75%
22:00 +28°C° 0 mm 4 mps 755 mmHg 76%
23:00 +27°C° 0 mm 3 mps 755 mmHg 76%

10 August, Monday

Time Temperature Precipitation Wind Pressure Humidity
00:00 +27°C° 0 mm 3 mps 755 mmHg 77%
01:00 +27°C° 0 mm 2 mps 754 mmHg 78%
02:00 +26°C° 0 mm 2 mps 754 mmHg 79%
03:00 +26°C° 0 mm 2 mps 754 mmHg 79%
04:00 +26°C° 0 mm 2 mps 754 mmHg 79%
05:00 +26°C° 0 mm 2 mps 754 mmHg 79%
06:00 +27°C° 0 mm 3 mps 754 mmHg 74%
07:00 +29°C° 0 mm 3 mps 755 mmHg 69%
08:00 +30°C° 0 mm 4 mps 755 mmHg 63%
09:00 +32°C° 0 mm 4 mps 755 mmHg 60%
10:00 +33°C° 0 mm 5 mps 755 mmHg 56%
11:00 +34°C° 0 mm 5 mps 755 mmHg 52%
12:00 +34°C° 0 mm 5 mps 755 mmHg 52%
13:00 +34°C° 0 mm 6 mps 755 mmHg 52%
14:00 +34°C° 0 mm 6 mps 755 mmHg 51%
15:00 +34°C° 0 mm 6 mps 754 mmHg 54%
16:00 +33°C° 0 mm 6 mps 754 mmHg 56%
17:00 +33°C° 0 mm 6 mps 754 mmHg 58%
18:00 +32°C° 0 mm 5 mps 755 mmHg 64%
19:00 +30°C° 0 mm 5 mps 755 mmHg 70%
20:00 +29°C° 0 mm 5 mps 755 mmHg 76%
21:00 +28°C° 0 mm 5 mps 755 mmHg 78%
22:00 +28°C° 0 mm 4 mps 756 mmHg 80%
23:00 +28°C° 0 mm 4 mps 756 mmHg 81%

11 August, Tuesday

Time Temperature Precipitation Wind Pressure Humidity
00:00 +28°C° 0 mm 3 mps 755 mmHg 83%
01:00 +27°C° 0 mm 3 mps 755 mmHg 84%
02:00 +27°C° 0 mm 3 mps 755 mmHg 85%
03:00 +28°C° 0 mm 3 mps 755 mmHg 82%
04:00 +28°C° 0 mm 2 mps 755 mmHg 79%
05:00 +28°C° 0 mm 2 mps 755 mmHg 76%
06:00 +29°C° 0 mm 2 mps 755 mmHg 72%
07:00 +29°C° 0 mm 2 mps 756 mmHg 68%
08:00 +30°C° 0 mm 2 mps 756 mmHg 64%
09:00 +31°C° 0 mm 3 mps 756 mmHg 60%
10:00 +33°C° 0 mm 4 mps 756 mmHg 57%
11:00 +34°C° 0 mm 4 mps 756 mmHg 53%
12:00 +34°C° 0 mm 5 mps 756 mmHg 53%
13:00 +34°C° 0 mm 5 mps 755 mmHg 53%
14:00 +34°C° 0 mm 5 mps 755 mmHg 53%
15:00 +33°C° 0 mm 6 mps 755 mmHg 56%
16:00 +33°C° 0 mm 6 mps 754 mmHg 58%
17:00 +32°C° 0 mm 6 mps 754 mmHg 61%
18:00 +30°C° 0 mm 6 mps 755 mmHg 66%
19:00 +29°C° 0 mm 5 mps 755 mmHg 70%
20:00 +28°C° 0 mm 5 mps 755 mmHg 75%
21:00 +28°C° 0 mm 5 mps 755 mmHg 76%
22:00 +28°C° 0 mm 4 mps 755 mmHg 76%
23:00 +28°C° 0 mm 4 mps 755 mmHg 77%

12 August, Wednesday

Time Temperature Precipitation Wind Pressure Humidity
00:00 +27°C° 0 mm 4 mps 755 mmHg 79%
01:00 +27°C° 0 mm 4 mps 755 mmHg 80%
02:00 +27°C° 0 mm 4 mps 754 mmHg 82%
03:00 +27°C° 0 mm 3 mps 754 mmHg 82%
04:00 +27°C° 0 mm 3 mps 754 mmHg 82%
05:00 +27°C° 0 mm 3 mps 754 mmHg 83%
06:00 +28°C° 0 mm 3 mps 754 mmHg 76%
07:00 +29°C° 0 mm 4 mps 754 mmHg 69%
08:00 +30°C° 0 mm 4 mps 755 mmHg 62%
09:00 +32°C° 0 mm 4 mps 754 mmHg 59%
10:00 +32°C° 0 mm 5 mps 754 mmHg 56%
11:00 +33°C° 0 mm 5 mps 754 mmHg 52%
12:00 +34°C° 0 mm 5 mps 754 mmHg 51%
13:00 +34°C° 0 mm 5 mps 754 mmHg 49%
14:00 +34°C° 0 mm 5 mps 754 mmHg 48%
15:00 +34°C° 0 mm 5 mps 753 mmHg 50%
16:00 +33°C° 0 mm 6 mps 753 mmHg 53%
17:00 +32°C° 0 mm 6 mps 753 mmHg 56%
18:00 +30°C° 0 mm 6 mps 754 mmHg 61%
19:00 +29°C° 0 mm 6 mps 754 mmHg 66%
20:00 +28°C° 0 mm 5 mps 754 mmHg 70%
21:00 +28°C° 0 mm 5 mps 754 mmHg 70%
22:00 +28°C° 0 mm 5 mps 754 mmHg 69%
23:00 +28°C° 0 mm 5 mps 754 mmHg 68%
Show more